Wind_Speed
27 26 25 25 26 25 25 25 24 24 24 24 23 23 24 24 24 24 24 25 25 25 26 26 26 26 26 26 27 27 27 28 28 28 29 29 29 30 30 30 30 31 30
29 28 28 28 27 27 27 27 27 27 27 26 26 26 26 26 26 27 27 27 28 28 28 27 27 28 28 28 28 29 29 29 30 30 31 31 31 31 31 32 32 32 33
31 30 29 30 30 30 29 29 29 29 29 29 29 28 28 28 28 29 29 29 29 29 29 29 29 29 30 30 30 30 30 31 31 32 32 32 32 33 33 33 34 34 35
33 33 32 32 32 32 31 31 31 31 30 31 31 31 30 30 30 31 31 31 31 31 31 31 31 31 31 31 32 32 32 33 33 33 33 34 34 35 35 35 36 36 36
35 35 35 35 34 34 34 33 32 32 33 32 33 33 32 32 32 32 32 32 32 32 33 33 33 33 33 33 33 34 34 34 34 35 35 35 36 36 37 37 38 38 37
37 37 37 36 36 35 35 35 34 34 34 34 34 34 34 33 33 33 33 34 35 35 35 35 35 35 34 35 35 35 36 36 36 36 36 36 37 38 38 39 39 39 39
40 39 39 39 38 38 37 37 36 35 35 36 36 36 36 36 36 35 35 36 36 36 37 36 36 36 36 36 36 37 37 37 38 37 37 37 38 39 40 40 41 41 41
41 41 41 41 40 40 39 38 38 38 37 37 38 39 39 39 38 37 38 38 38 38 38 37 37 37 38 38 38 38 39 39 39 39 39 39 40 41 42 42 42 43 43
42 43 43 42 42 42 41 41 41 40 40 40 40 41 41 40 40 39 39 40 39 39 39 39 39 39 40 40 40 40 40 40 40 40 40 41 42 42 43 44 44 44 44
44 44 44 44 44 44 43 43 43 42 42 42 43 43 43 43 42 41 41 41 41 40 41 41 41 41 42 42 42 42 42 42 42 43 43 43 43 44 45 45 45 45 45
46 46 46 46 46 45 45 45 44 44 44 44 44 44 44 44 44 44 43 42 42 42 43 43 43 44 44 44 44 43 43 44 45 45 45 45 45 45 45 46 45 45 46
46 47 47 46 46 46 46 46 46 46 45 45 45 45 45 45 45 45 45 44 44 44 45 45 45 46 46 46 46 45 45 46 46 46 46 47 47 46 46 46 46 47 47
47 47 46 47 47 46 46 46 47 47 47 46 47 46 47 47 47 46 46 46 46 45 46 46 46 47 47 46 47 47 46 47 47 47 48 48 47 47 47 47 47 47 48
48 47 47 47 46 47 47 47 48 48 48 48 47 48 49 48 48 48 48 48 47 46 46 46 46 46 46 46 47 48 47 48 48 48 48 48 47 47 48 48 48 49 50
48 47 47 47 47 48 48 48 48 48 49 49 49 50 50 50 50 50 49 48 48 47 46 45 45 46 46 48 48 48 48 48 49 49 49 48 47 48 49 49 49 50 50
48 48 48 47 47 48 48 48 48 49 49 50 50 51 51 51 52 51 50 50 48 47 45 45 47 47 48 48 48 49 49 49 49 48 48 47 48 49 49 49 50 50 50
48 48 48 47 47 47 48 49 49 49 49 49 50 50 50 50 50 50 50 50 50 49 48 47 48 48 48 48 48 49 49 49 48 48 47 48 49 50 50 50 50 50 49
48 48 48 48 48 48 48 48 48 48 48 48 49 50 50 50 49 49 49 49 50 51 50 48 48 49 48 48 49 50 49 48 48 48 48 49 50 50 51 51 51 50 49
48 47 46 46 46 46 47 47 48 47 47 47 48 49 49 50 49 49 50 50 50 50 50 50 50 48 48 49 49 49 50 48 48 48 49 50 50 51 51 51 51 50 49
46 47 46 44 44 45 45 46 47 47 47 48 48 48 48 48 49 49 49 49 49 49 50 50 49 48 48 48 48 49 48 48 48 48 50 50 51 51 51 51 50 49 49
45 45 45 44 44 44 45 46 45 46 46 47 47 48 47 47 48 48 48 49 49 49 50 48 48 48 47 47 46 46 47 47 48 49 50 50 51 51 51 50 49 49 49
45 44 44 43 44 44 45 47 47 47 46 47 47 46 46 47 46 46 46 47 48 48 47 48 48 48 47 47 46 45 45 47 48 48 49 49 50 49 49 49 49 48 48
43 44 43 43 43 44 45 46 47 47 47 47 46 45 45 45 45 44 44 44 45 46 47 47 47 47 46 46 46 46 47 47 48 48 47 47 48 48 48 48 48 48 47
42 42 42 42 43 44 44 45 46 47 46 45 45 45 44 43 42 43 43 43 43 44 44 46 46 46 46 45 46 47 47 47 47 46 46 46 45 46 46 46 46 46 44
41 42 43 43 43 43 43 44 44 45 44 44 44 43 43 42 41 42 43 43 44 44 45 45 44 44 44 45 45 46 46 46 45 44 45 45 45 46 46 45 45 44 43
39 41 42 43 42 42 42 42 43 43 42 42 42 40 41 41 42 42 43 43 43 44 44 43 44 44 44 44 44 44 44 43 43 42 42 43 43 44 44 43 42 41 41
Wind_Direction
252 253 255 258 259 260 261 262 263 265 266 267 269 272 275 276 277 279 281 283 287 287 287 288 287 288 289 290 292 293 293 294 295 296 296 297 297 297 296 297 298 298 298
253 254 256 257 259 260 261 262 263 265 266 266 268 271 273 275 276 278 280 283 286 287 287 288 287 288 288 289 290 292 293 293 294 295 296 296 296 295 295 295 296 296 296
254 255 256 258 260 261 262 263 264 265 267 268 268 270 273 275 276 277 280 283 284 285 286 287 287 287 287 288 290 291 291 292 293 295 295 295 294 295 295 295 295 296 295
254 255 256 258 260 261 262 264 264 265 267 268 269 270 272 275 277 278 280 281 282 283 285 286 287 287 287 288 289 290 291 292 293 293 294 294 293 294 294 296 296 296 295
255 256 257 258 260 261 261 264 265 266 267 268 270 270 272 274 277 280 280 280 281 283 284 285 286 287 286 287 288 290 290 291 292 292 292 293 293 294 295 295 296 296 295
255 256 257 258 260 262 262 263 265 266 267 268 269 271 272 274 277 280 280 279 280 281 282 283 284 285 285 287 288 289 289 290 290 291 292 292 292 293 294 294 296 296 295
255 257 258 260 261 261 262 264 264 265 266 268 270 271 272 274 277 279 279 279 280 280 281 282 283 285 285 287 288 288 289 289 290 290 292 292 292 293 293 294 294 295 295
255 256 258 259 261 261 262 263 264 265 267 269 271 272 273 274 276 278 279 279 278 279 280 282 283 284 285 285 287 288 288 288 289 290 290 291 292 292 292 293 293 294 294
256 256 256 259 261 262 262 263 265 267 268 270 272 272 272 274 275 276 277 278 278 278 280 281 282 283 285 285 285 286 286 287 288 288 289 290 291 291 292 292 292 292 292
257 258 258 259 260 262 262 263 265 267 269 269 272 273 274 275 276 276 276 277 277 279 280 280 281 282 284 285 285 285 285 286 287 288 289 290 290 291 291 291 290 290 290
258 259 259 260 261 262 262 263 265 267 268 269 271 273 275 276 276 276 276 276 276 277 278 279 280 282 283 285 285 285 285 286 287 288 289 289 289 290 290 290 289 290 291
258 259 259 260 261 262 262 264 266 267 269 270 271 273 275 275 276 277 277 277 276 277 278 279 280 282 283 284 285 285 285 287 287 288 288 288 289 289 289 289 289 290 291
258 258 258 260 261 262 263 265 266 267 270 271 272 273 275 275 275 276 277 277 276 277 279 279 280 281 282 283 284 285 286 286 287 288 288 288 288 289 290 290 290 291 291
257 257 257 258 260 262 264 266 267 268 270 271 272 274 275 276 276 276 276 277 277 277 278 279 280 281 282 282 283 284 285 286 286 287 288 287 287 288 290 291 291 292 292
257 256 256 258 260 262 264 267 268 270 270 271 273 275 275 276 276 276 275 276 277 277 278 280 281 281 281 282 282 284 283 284 285 286 286 286 286 288 290 291 291 292 292
257 257 256 258 260 263 265 266 268 269 270 271 273 275 276 276 275 275 275 275 276 278 279 279 280 281 282 282 282 283 282 283 284 284 284 285 286 288 289 290 291 292 291
258 258 257 258 260 263 265 266 268 270 271 272 273 274 276 276 275 275 275 275 275 277 279 279 280 281 281 281 282 282 282 282 282 283 283 284 285 287 289 290 292 291 290
258 259 259 259 261 263 265 267 269 270 271 271 273 275 276 276 275 275 275 276 276 277 278 279 280 280 281 281 281 281 282 282 282 282 284 285 285 286 288 290 290 290 290
258 259 260 260 263 264 265 267 268 271 272 273 274 276 277 276 275 275 275 276 276 276 277 279 279 280 280 281 281 281 281 281 281 282 284 286 287 288 288 289 289 289 290
258 259 259 259 263 265 265 266 268 271 271 273 275 277 277 277 276 276 275 275 276 277 279 279 280 280 281 282 282 281 280 281 282 284 285 286 287 288 288 289 289 289 290
259 260 260 262 266 267 266 267 268 272 273 274 276 276 276 276 276 275 276 276 277 279 279 279 280 281 282 282 282 281 280 281 283 285 287 287 287 287 288 289 289 289 290
261 260 261 264 267 268 269 269 270 271 272 274 275 275 275 275 275 276 277 277 278 280 280 280 281 282 282 282 282 282 282 282 283 285 286 287 288 288 288 288 289 290 291
261 261 262 264 267 268 269 269 269 270 271 273 274 274 273 273 274 275 276 278 280 281 281 282 282 283 283 282 283 284 285 285 285 285 285 286 288 289 289 288 289 291 292
260 260 263 265 267 269 269 269 269 270 270 271 272 273 272 273 274 275 278 279 281 282 282 283 283 283 282 283 284 285 286 287 286 286 286 286 288 289 290 289 290 291 291
261 261 263 264 266 267 268 269 270 270 271 272 273 273 273 274 274 276 279 280 282 283 283 283 283 282 282 284 285 286 286 286 285 286 288 288 288 289 289 290 290 290 291
264 264 263 264 266 266 267 269 271 271 272 273 272 272 273 273 275 276 278 280 281 283 284 283 283 282 283 284 284 286 286 285 286 287 289 290 290 290 289 289 290 290 289
Height
5827 5827 5828 5828 5828 5828 5828 5829 5828 5829 5829 5829 5829 5829 5829 5829 5829 5828 5827 5827 5825 5824 5823 5821 5820 5819 5817 5816 5814 5813 5811 5809 5807 5805 5803 5801 5798 5796 5794 5791 5789 5786 5784
5821 5821 5822 5822 5822 5822 5823 5823 5823 5823 5823 5823 5823 5823 5823 5823 5823 5822 5822 5821 5820 5818 5817 5815 5814 5813 5811 5810 5808 5806 5804 5802 5800 5798 5796 5794 5792 5789 5787 5784 5782 5779 5777
5814 5815 5816 5816 5816 5816 5816 5816 5817 5817 5817 5817 5817 5817 5817 5817 5816 5816 5815 5814 5813 5811 5810 5809 5808 5806 5805 5803 5801 5800 5798 5796 5794 5792 5790 5787 5785 5782 5780 5777 5775 5772 5769
5807 5808 5808 5809 5809 5809 5810 5810 5810 5810 5810 5810 5810 5810 5810 5810 5809 5809 5808 5807 5806 5804 5803 5802 5801 5799 5798 5796 5794 5793 5791 5789 5786 5784 5782 5780 5777 5775 5772 5769 5767 5764 5761
5799 5800 5801 5802 5802 5802 5802 5803 5803 5803 5803 5803 5803 5803 5803 5802 5802 5801 5800 5799 5798 5797 5795 5794 5793 5791 5790 5788 5787 5785 5783 5781 5779 5776 5774 5772 5769 5767 5764 5761 5758 5756 5753
5790 5791 5793 5793 5794 5794 5795 5795 5795 5795 5795 5795 5795 5795 5795 5794 5794 5793 5792 5791 5790 5789 5787 5786 5785 5783 5782 5780 5778 5777 5774 5772 5770 5768 5766 5763 5761 5758 5755 5753 5750 5747 5744
5781 5783 5784 5785 5786 5786 5787 5787 5787 5787 5787 5787 5787 5787 5787 5786 5786 5785 5784 5783 5781 5780 5779 5777 5776 5774 5773 5772 5770 5768 5766 5763 5761 5759 5757 5754 5752 5749 5746 5743 5740 5737 5734
5772 5773 5775 5776 5776 5777 5778 5778 5779 5779 5779 5779 5779 5778 5778 5778 5777 5776 5775 5773 5772 5771 5770 5768 5767 5765 5764 5763 5761 5759 5756 5754 5752 5750 5747 5745 5742 5739 5736 5733 5730 5727 5723
5762 5764 5765 5766 5767 5768 5769 5769 5770 5770 5770 5770 5769 5769 5769 5769 5768 5767 5766 5764 5763 5762 5760 5759 5757 5756 5754 5753 5751 5749 5747 5744 5742 5740 5737 5734 5732 5728 5725 5722 5719 5715 5712
5752 5753 5755 5756 5757 5758 5759 5760 5760 5761 5760 5760 5760 5759 5759 5757 5757 5757 5756 5754 5753 5751 5750 5749 5747 5746 5744 5742 5740 5738 5736 5734 5732 5729 5726 5724 5720 5717 5714 5710 5707 5703 5700
5741 5742 5744 5745 5747 5748 5748 5749 5750 5750 5750 5750 5750 5749 5748 5746 5745 5744 5745 5744 5743 5741 5739 5738 5737 5735 5733 5731 5729 5727 5725 5723 5720 5718 5715 5712 5709 5705 5702 5698 5694 5691 5688
5729 5731 5733 5734 5735 5737 5738 5738 5739 5739 5739 5739 5739 5738 5737 5736 5735 5733 5732 5732 5731 5730 5729 5727 5725 5723 5721 5719 5718 5716 5713 5711 5708 5706 5703 5700 5696 5693 5689 5686 5682 5679 5676
5718 5720 5721 5723 5724 5726 5726 5727 5728 5728 5728 5728 5728 5727 5726 5724 5723 5721 5720 5719 5718 5718 5717 5715 5713 5711 5709 5707 5705 5703 5701 5699 5696 5693 5690 5687 5684 5681 5677 5674 5670 5666 5663
5707 5708 5710 5712 5713 5714 5715 5716 5716 5717 5717 5716 5716 5715 5714 5713 5711 5710 5709 5707 5706 5705 5704 5703 5701 5699 5697 5695 5693 5691 5689 5686 5684 5681 5678 5675 5672 5668 5665 5662 5658 5654 5650
5694 5696 5698 5700 5701 5703 5704 5704 5704 5705 5705 5704 5704 5703 5702 5701 5699 5698 5696 5694 5693 5692 5692 5692 5690 5687 5685 5683 5681 5678 5676 5673 5671 5668 5665 5662 5659 5656 5653 5650 5646 5641 5637
5682 5684 5686 5688 5689 5690 5691 5692 5692 5692 5692 5692 5691 5690 5689 5688 5686 5685 5683 5682 5680 5679 5679 5679 5677 5675 5672 5670 5668 5665 5663 5661 5658 5655 5652 5650 5647 5644 5641 5637 5633 5628 5624
5670 5672 5674 5676 5677 5678 5679 5679 5680 5679 5680 5679 5678 5677 5676 5675 5673 5672 5670 5669 5668 5666 5665 5666 5664 5662 5659 5657 5654 5652 5649 5647 5644 5642 5639 5637 5634 5631 5628 5624 5620 5616 5611
5657 5659 5661 5663 5664 5666 5666 5667 5667 5667 5667 5667 5666 5665 5663 5662 5660 5659 5658 5656 5655 5653 5651 5651 5650 5648 5646 5643 5641 5638 5636 5634 5631 5629 5627 5624 5621 5618 5614 5611 5606 5602 5598
5645 5647 5648 5650 5652 5653 5654 5655 5655 5655 5655 5654 5654 5652 5651 5649 5648 5646 5645 5643 5642 5640 5638 5637 5636 5634 5632 5630 5627 5625 5623 5620 5618 5616 5614 5611 5607 5604 5600 5597 5593 5589 5585
5632 5634 5636 5638 5640 5641 5642 5643 5643 5643 5643 5642 5641 5639 5638 5636 5635 5634 5632 5631 5629 5628 5626 5624 5622 5621 5619 5616 5614 5612 5610 5608 5606 5603 5600 5597 5594 5590 5587 5583 5580 5576 5572
5620 5622 5625 5627 5628 5629 5630 5631 5631 5631 5630 5629 5628 5627 5625 5624 5623 5621 5620 5619 5617 5616 5614 5612 5610 5608 5606 5603 5601 5599 5597 5595 5593 5590 5587 5584 5581 5577 5573 5570 5566 5563 5559
5607 5610 5612 5615 5616 5617 5618 5618 5618 5618 5617 5616 5615 5614 5613 5612 5611 5609 5608 5607 5605 5603 5601 5600 5598 5595 5593 5591 5589 5586 5584 5582 5581 5579 5575 5571 5567 5564 5560 5557 5553 5549 5545
5596 5598 5600 5603 5604 5605 5606 5606 5606 5605 5605 5603 5602 5602 5601 5600 5599 5598 5596 5595 5593 5591 5589 5588 5585 5583 5581 5579 5577 5574 5571 5569 5567 5565 5562 5559 5555 5551 5547 5543 5539 5536 5532
5585 5587 5589 5591 5592 5593 5593 5593 5593 5592 5592 5591 5590 5590 5589 5588 5587 5586 5584 5583 5581 5579 5577 5575 5574 5572 5569 5567 5565 5563 5559 5557 5554 5551 5548 5546 5542 5539 5535 5530 5526 5523 5519
5575 5576 5578 5580 5581 5581 5581 5581 5581 5581 5580 5580 5579 5578 5577 5577 5575 5574 5573 5572 5570 5568 5565 5562 5560 5558 5556 5555 5552 5550 5547 5545 5543 5540 5536 5533 5530 5527 5523 5519 5515 5511 5507
5565 5566 5568 5569 5569 5569 5569 5569 5569 5569 5569 5568 5568 5567 5566 5565 5563 5562 5560 5559 5558 5555 5553 5550 5548 5546 5544 5542 5540 5538 5535 5533 5530 5528 5525 5522 5518 5515 5512 5508 5504 5500 5496